Location: Bosmont
(49.7318°N, 3.8587°E)
Time: 18:57:22
(UTC+00:00)

Sep Motor Cover - Visible Passes

Search period start: 26 May 2024 00:00
Search period end: 05 June 2024 00:00
Orbit: 621 x 804 km, 97.9° (Epoch: 25 May)

Date Brightness Start Highest point End Pass type
(mag) Time Alt. Az. Time Alt. Az. Time Alt. Az.
26 May ? 21:20:25 10° ENE 21:22:12 12° NE 21:24:02 10° NNE visible
26 May ? 22:57:32 36° SSE 22:59:19 75° ENE 23:04:01 10° N visible
27 May ? 00:36:37 13° WSW 00:37:58 15° W 00:40:31 10° NW visible
27 May ? 22:04:48 16° ESE 22:07:31 27° ENE 22:11:28 10° N visible
27 May ? 23:43:53 32° SW 23:45:20 42° W 23:49:48 10° NNW visible
28 May ? 21:14:46 10° ENE 21:16:07 11° NE 21:17:30 10° NE visible
28 May ? 22:51:09 32° SE 22:53:08 66° ENE 22:57:52 10° N visible
29 May ? 00:30:14 15° WSW 00:31:42 17° W 00:34:42 10° NW visible
29 May ? 21:58:24 13° ESE 22:01:24 25° ENE 22:05:14 10° N visible
29 May ? 23:37:30 33° SSW 23:39:06 47° W 23:43:43 10° NNW visible
30 May ? 21:09:25 10° ENE 21:10:02 10° NE 21:10:40 10° NE visible
30 May ? 22:44:45 29° SE 22:46:58 59° ENE 22:51:42 10° N visible
31 May ? 00:23:51 16° WSW 00:25:25 19° W 00:28:47 10° NW visible
31 May ? 21:52:01 12° ESE 21:55:16 23° ENE 21:59:00 10° N visible
31 May ? 23:31:06 34° SSW 23:32:53 54° W 23:37:37 10° NNW visible
01 Jun ? 22:38:22 26° SE 22:40:47 53° ENE 22:45:31 10° N visible
02 Jun ? 00:17:27 18° WSW 00:19:08 22° W 00:22:50 10° NW visible
02 Jun ? 21:45:39 10° ESE 21:49:07 21° ENE 21:52:43 10° NNE visible
02 Jun ? 23:24:43 34° SSW 23:26:38 62° W 23:31:29 10° NNW visible
03 Jun ? 22:31:58 23° SE 22:34:35 47° ENE 22:39:19 10° N visible
04 Jun ? 00:11:03 20° SW 00:12:51 25° W 00:16:50 10° NW visible
04 Jun ? 21:39:39 10° ESE 21:42:59 19° ENE 21:46:25 10° NNE visible
04 Jun ? 23:18:18 33° S 23:20:24 70° WSW 23:25:21 10° NNW visible
